Lid_Strength_Index
1 0 1 0 1 2 3 3 4 5 6 4 4 3 4 4 4 3 1 1 1 0 2 3 2 3 3 2 2 0 0 -0 -0 -0 -0 -0 -0 -0
1 0 1 0 1 2 2 4 6 6 6 5 5 5 4 5 4 4 3 3 3 3 2 4 4 3 3 3 2 1 0 -1 -1 -1 -1 -0 0 1
1 2 2 2 2 1 1 3 5 6 7 5 7 5 5 4 4 5 5 5 6 4 3 4 4 3 3 2 3 2 1 0 -0 -1 -1 -1 -0 1
1 1 1 1 1 1 2 2 3 4 6 5 3 4 4 4 4 5 6 7 7 5 4 3 3 4 4 4 4 3 2 2 1 -0 -1 -1 -0 0
1 1 1 1 1 1 1 2 1 2 4 5 3 3 3 3 3 4 5 5 6 6 4 4 4 4 4 4 4 4 4 4 3 1 1 0 -1 -1
0 0 0 1 1 1 1 1 1 2 2 3 3 2 2 1 4 4 3 5 5 6 4 5 4 4 4 3 3 3 4 4 5 3 2 2 2 0
0 0 0 0 2 1 1 1 1 2 2 2 3 3 2 2 2 2 5 5 5 5 5 5 6 5 5 5 5 4 4 4 4 4 3 4 3 2
1 1 0 1 1 3 4 3 1 1 2 2 3 3 3 2 1 2 4 6 6 6 6 7 6 7 6 6 5 4 3 3 4 3 3 4 4 3
1 1 1 0 1 0 3 4 4 4 3 1 2 2 2 1 1 2 4 6 7 7 7 8 8 7 7 6 6 4 4 4 4 4 4 4 4 4
1 1 1 1 0 1 1 1 1 0 1 2 1 1 0 0 0 1 3 6 8 8 7 8 8 9 8 6 7 5 5 5 5 5 5 4 5 5
1 0 0 1 2 6 1 1 1 1 3 6 5 5 6 6 4 5 7 8 8 8 7 8 9 10 9 7 6 6 6 7 7 7 6 5 5 6
1 0 4 2 5 7 2 1 2 2 1 1 2 4 5 4 7 4 4 7 8 8 8 9 11 9 10 7 7 5 5 7 8 8 8 7 6 3
2 1 1 6 8 9 9 2 3 2 3 3 3 3 4 4 5 5 4 5 7 7 9 8 11 10 8 9 6 5 5 5 5 6 9 9 7 5
2 1 1 7 10 11 11 10 10 9 5 5 4 4 4 4 5 5 5 5 6 6 9 8 9 9 9 9 7 5 5 5 6 6 7 8 8 7
1 3 6 10 11 10 12 11 11 7 5 5 4 3 4 4 6 6 7 7 8 9 8 8 9 9 8 9 6 6 6 5 7 7 7 7 7 6
6 4 5 7 8 6 6 6 6 4 4 3 2 3 5 7 7 7 8 9 9 9 8 7 8 9 9 8 7 6 5 6 8 8 8 8 7 7
4 3 3 3 3 3 3 3 3 3 3 2 3 5 6 7 7 8 8 9 10 9 8 8 8 8 8 7 6 6 6 7 8 9 9 9 8 7
6 3 3 2 3 3 3 3 2 2 2 1 3 4 5 6 7 8 9 9 9 9 9 9 9 9 9 7 6 6 7 8 9 9 9 10 9 8
4 3 3 2 2 2 2 2 2 1 1 3 4 4 4 5 7 9 9 10 9 8 9 10 9 8 9 8 9 10 8 9 10 10 10 10 10 9
5 3 2 2 2 2 2 3 2 1 2 4 5 5 4 6 7 8 8 9 9 9 10 9 9 8 7 7 9 10 11 9 9 10 10 10 10 10
4 4 3 4 3 3 2 1 1 2 3 4 5 5 6 6 6 6 8 10 10 9 10 10 9 8 8 9 9 10 10 11 10 10 10 11 11 10
7 5 5 5 5 4 3 2 2 3 4 4 4 5 6 5 6 7 7 8 8 9 8 10 10 9 8 9 9 10 11 11 11 11 11 11 11 11
9 9 9 9 9 8 6 5 5 5 5 5 5 6 6 6 6 6 7 6 8 8 8 11 11 9 8 9 10 10 11 11 11 11 10 11 11 11